Location: Brachbach
(49.1847°N, 9.7240°E)
Time: 05:24:20
(UTC+00:00)

STARS - Pass Details

Date: 18 March 2026
Orbit: 575 x 588 km, 98.2° (Epoch: 15 April)

Event Time Altitude Azimuth Distance (km) Brightness Sun altitude
Rises 00:56:00 0° 21° (NNE) 2,800 ? -38.4°
Reaches altitude 10° 00:58:18 10° 30° (NNE) 1,896 ? -38.2°
Enters shadow 00:58:28 11° 31° (NNE) 1,830 ? -38.2°
